GLD1974 SFAL-EGYP

Flight info

Callsign GLD1974
Flight time 0h 13m
Altitude 4000
Route 512611S0581259W 513429S0590241W 511831S0593640W 512243S0600523W 512516S0602523W/N0110F030 514310S0600344W 515717S0600346W 520733S0592213W 515946S0582728W DCT YP432/N0110F040 DCT CT28
Aircraft C172/L-SFG/C

Departure

Time 2026-05-05 19:50
Airport Port Stanley Airport (SFAL)

Arrival

Time 2026-05-05 20:03
Airport Mount Pleasant Airport / RAF Mount Pleasant (EGYP)
Time Latitude Longitude Altitude Speed Heading
2026-05-05 19:46 -51.68679 -57.76732 74 ft 0 kts 269°
2026-05-05 19:47 -51.68709 -57.76700 71 ft 9 kts 89°
2026-05-05 19:47 -51.68676 -57.76646 75 ft 6 kts 12°
2026-05-05 19:48 -51.68624 -57.76641 76 ft 10 kts 358°
2026-05-05 19:48 -51.68588 -57.76693 76 ft 8 kts 269°
2026-05-05 19:48 -51.68587 -57.76834 76 ft 28 kts 269°
2026-05-05 19:48 -51.68585 -57.77388 91 ft 64 kts 260°
2026-05-05 19:49 -51.68564 -57.78161 197 ft 72 kts 261°
2026-05-05 19:49 -51.68575 -57.78722 266 ft 80 kts 263°
2026-05-05 19:49 -51.68800 -57.79927 427 ft 90 kts 246°
2026-05-05 19:49 -51.69009 -57.80914 564 ft 95 kts 246°
2026-05-05 19:50 -51.69233 -57.81935 698 ft 98 kts 245°
2026-05-05 19:50 -51.69466 -57.82981 835 ft 100 kts 246°
2026-05-05 19:50 -51.69704 -57.84023 974 ft 100 kts 245°
2026-05-05 19:50 -51.69944 -57.85097 1097 ft 104 kts 245°
2026-05-05 19:51 -51.70203 -57.86260 1103 ft 115 kts 245°
2026-05-05 19:51 -51.70483 -57.87497 1095 ft 119 kts 246°
2026-05-05 19:51 -51.70787 -57.88748 1103 ft 121 kts 246°
2026-05-05 19:51 -51.71094 -57.90007 1107 ft 117 kts 246°
2026-05-05 19:52 -51.71396 -57.91228 1104 ft 120 kts 245°
2026-05-05 19:52 -51.71709 -57.92491 1108 ft 122 kts 245°
2026-05-05 19:52 -51.72031 -57.93773 1107 ft 123 kts 245°
2026-05-05 19:52 -51.72355 -57.95048 1112 ft 123 kts 245°
2026-05-05 19:53 -51.72661 -57.96265 1105 ft 113 kts 245°
2026-05-05 19:53 -51.72937 -57.97477 1106 ft 118 kts 251°
2026-05-05 19:53 -51.73146 -57.98777 1108 ft 121 kts 252°
2026-05-05 19:53 -51.73357 -58.00083 1109 ft 122 kts 252°
2026-05-05 19:54 -51.73568 -58.01413 1111 ft 122 kts 252°
2026-05-05 19:54 -51.73780 -58.02742 1112 ft 122 kts 252°
2026-05-05 19:54 -51.73990 -58.04068 1112 ft 122 kts 252°
2026-05-05 19:54 -51.74198 -58.05390 1115 ft 121 kts 252°
2026-05-05 19:55 -51.74404 -58.06706 1114 ft 121 kts 252°
2026-05-05 19:55 -51.74605 -58.08020 1113 ft 120 kts 252°
2026-05-05 19:55 -51.74809 -58.09328 1112 ft 120 kts 252°
2026-05-05 19:55 -51.75013 -58.10630 1113 ft 119 kts 252°
2026-05-05 19:56 -51.75218 -58.11922 1112 ft 119 kts 252°
2026-05-05 19:56 -51.75421 -58.13210 1123 ft 118 kts 252°
2026-05-05 19:56 -51.75624 -58.14502 1124 ft 119 kts 252°
2026-05-05 19:56 -51.75832 -58.15813 1104 ft 121 kts 252°
2026-05-05 19:57 -51.76040 -58.17123 1107 ft 120 kts 252°
2026-05-05 19:57 -51.76179 -58.17992 1107 ft 121 kts 252°
2026-05-05 19:57 -51.76454 -58.19733 1107 ft 121 kts 252°
2026-05-05 19:57 -51.76663 -58.21041 1109 ft 121 kts 252°
2026-05-05 19:58 -51.76874 -58.22354 1108 ft 121 kts 252°
2026-05-05 19:58 -51.77085 -58.23667 1105 ft 121 kts 252°
2026-05-05 19:58 -51.77295 -58.24967 1106 ft 119 kts 252°
2026-05-05 19:58 -51.77438 -58.25822 1108 ft 120 kts 252°
2026-05-05 19:59 -51.77654 -58.27132 1112 ft 122 kts 252°
2026-05-05 19:59 -51.77871 -58.28464 1114 ft 124 kts 252°
2026-05-05 19:59 -51.78093 -58.29810 1111 ft 124 kts 252°
2026-05-05 19:59 -51.78318 -58.31147 1111 ft 123 kts 252°
2026-05-05 20:00 -51.78544 -58.32474 1109 ft 122 kts 252°
2026-05-05 20:00 -51.78765 -58.33799 1105 ft 122 kts 252°
2026-05-05 20:00 -51.78982 -58.35116 1106 ft 121 kts 252°
2026-05-05 20:00 -51.79200 -58.36405 1054 ft 109 kts 251°
2026-05-05 20:01 -51.79407 -58.37461 883 ft 89 kts 247°
2026-05-05 20:01 -51.79614 -58.38263 795 ft 70 kts 245°
2026-05-05 20:01 -51.79799 -58.38868 788 ft 56 kts 237°
2026-05-05 20:01 -51.80043 -58.39382 777 ft 61 kts 231°
2026-05-05 20:02 -51.80284 -58.39980 725 ft 62 kts 237°
2026-05-05 20:02 -51.80520 -58.40546 640 ft 58 kts 231°
2026-05-05 20:02 -51.80778 -58.41095 543 ft 63 kts 236°
2026-05-05 20:02 -51.81029 -58.41693 433 ft 65 kts 238°
2026-05-05 20:03 -51.81269 -58.42264 331 ft 57 kts 235°
2026-05-05 20:03 -51.81494 -58.42788 257 ft 56 kts 234°
2026-05-05 20:03 -51.81717 -58.43311 220 ft 56 kts 236°
2026-05-05 20:03 -51.81924 -58.43796 217 ft 40 kts 234°
2026-05-05 20:04 -51.81990 -58.43969 217 ft 13 kts 266°
2026-05-05 20:04 -51.81933 -58.44020 218 ft 9 kts 351°
2026-05-05 20:04 -51.81864 -58.44041 218 ft 15 kts 339°
2026-05-05 20:04 -51.81770 -58.44123 218 ft 11 kts
2026-05-05 20:05 -51.81718 -58.44050 218 ft 10 kts 343°
2026-05-05 20:05 -51.81714 -58.44068 218 ft 0 kts 223°